OCN50 EDDF-KPHL

Flight info

Callsign OCN50
Flight time N/A
Altitude 36000
Route OBOKA5G/25C OBOKA Z28 DIBIR DCT BUDIP DCT RAVLO Y70 OTBED L60 PENIL M144 BAGSO DCT MALOT/M082F380 NATE RIKAL/N0467F380 N572A TOPPS/N0460F400 DCT LARIE Q220 RIFLE Q439 BRIGS JIIMS4
Aircraft A333/H-SDE3GHIJ2J3J5M1RVWXY/LB2D1

Departure

Time 2026-05-05 11:55
Airport Frankfurt Main Airport (EDDF)

Arrival

Time N/A
Airport Philadelphia International Airport (KPHL)
Time Latitude Longitude Altitude Speed Heading
2026-05-05 10:54 50.04890 8.57976 368 ft 0 kts 12°
2026-05-05 11:32 50.04881 8.57973 388 ft 2 kts 31°
2026-05-05 11:32 50.04868 8.57958 388 ft 2 kts 49°
2026-05-05 11:32 50.04859 8.57938 361 ft 2 kts 66°
2026-05-05 11:32 50.04854 8.57913 362 ft 2 kts 79°
2026-05-05 11:33 50.04851 8.57888 362 ft 2 kts 87°
2026-05-05 11:33 50.04851 8.57862 362 ft 2 kts 93°
2026-05-05 11:33 50.04853 8.57837 362 ft 2 kts 98°
2026-05-05 11:33 50.04856 8.57812 362 ft 2 kts 103°
2026-05-05 11:34 50.04860 8.57788 364 ft 2 kts 112°
2026-05-05 11:34 50.04867 8.57765 367 ft 2 kts 113°
2026-05-05 11:34 50.04870 8.57754 363 ft 0 kts 112°
2026-05-05 11:38 50.04868 8.57759 369 ft 2 kts 113°
2026-05-05 11:39 50.04857 8.57801 367 ft 6 kts 112°
2026-05-05 11:39 50.04834 8.57867 368 ft 4 kts 124°
2026-05-05 11:39 50.04814 8.57899 369 ft 7 kts 134°
2026-05-05 11:39 50.04790 8.57954 368 ft 4 kts 115°
2026-05-05 11:40 50.04788 8.57970 364 ft 1 kts 96°
2026-05-05 11:40 50.04790 8.57980 365 ft 3 kts 83°
2026-05-05 11:40 50.04799 8.58031 366 ft 7 kts 72°
2026-05-05 11:40 50.04816 8.58104 366 ft 7 kts 70°
2026-05-05 11:41 50.04832 8.58175 367 ft 6 kts 70°
2026-05-05 11:41 50.04848 8.58240 367 ft 7 kts 70°
2026-05-05 11:41 50.04875 8.58356 369 ft 13 kts 69°
2026-05-05 11:41 50.04908 8.58491 366 ft 13 kts 70°
2026-05-05 11:42 50.04925 8.58622 362 ft 12 kts 103°
2026-05-05 11:42 50.04876 8.58686 370 ft 0 kts 155°
2026-05-05 11:43 50.04876 8.58687 370 ft 1 kts 155°
2026-05-05 11:43 50.04850 8.58704 365 ft 7 kts 156°
2026-05-05 11:43 50.04795 8.58738 366 ft 9 kts 159°
2026-05-05 11:43 50.04739 8.58762 367 ft 8 kts 170°
2026-05-05 11:44 50.04683 8.58763 364 ft 8 kts 184°
2026-05-05 11:44 50.04654 8.58758 365 ft 0 kts 186°
2026-05-05 11:44 50.04653 8.58758 365 ft 2 kts 186°
2026-05-05 11:45 50.04651 8.58758 365 ft 0 kts 186°
2026-05-05 11:52 50.04639 8.58753 367 ft 5 kts 194°
2026-05-05 11:52 50.04595 8.58721 370 ft 7 kts 212°
2026-05-05 11:52 50.04561 8.58687 372 ft 7 kts 213°
2026-05-05 11:53 50.04528 8.58650 374 ft 5 kts 217°
2026-05-05 11:53 50.04496 8.58602 372 ft 8 kts 233°
2026-05-05 11:53 50.04483 8.58562 367 ft 0 kts 246°
2026-05-05 11:53 50.04481 8.58556 367 ft 0 kts 246°
2026-05-05 11:54 50.04454 8.58451 373 ft 35 kts 250°
2026-05-05 11:54 50.04303 8.57820 370 ft 89 kts 249°
2026-05-05 11:54 50.04025 8.56659 364 ft 138 kts 250°
2026-05-05 11:54 50.03633 8.55027 376 ft 181 kts 249°
2026-05-05 11:55 50.03211 8.53180 994 ft 178 kts 251°
2026-05-05 11:55 50.02801 8.51383 1773 ft 174 kts 250°
2026-05-05 11:55 50.02613 8.49476 2079 ft 189 kts 275°
2026-05-05 11:55 50.02878 8.47369 2370 ft 207 kts 279°
2026-05-05 11:56 50.03102 8.45058 2656 ft 224 kts 274°
2026-05-05 11:56 50.03025 8.42585 2974 ft 239 kts 260°
2026-05-05 11:56 50.02677 8.39952 3298 ft 256 kts 256°
2026-05-05 11:56 50.02281 8.37215 3912 ft 261 kts 256°
2026-05-05 11:57 50.01901 8.34437 4588 ft 263 kts 257°
2026-05-05 11:57 50.01536 8.31625 4938 ft 265 kts 257°
2026-05-05 11:57 50.01354 8.28798 5121 ft 268 kts 272°
2026-05-05 11:57 50.01815 8.25960 5653 ft 274 kts 290°
2026-05-05 11:58 50.02572 8.23230 6365 ft 276 kts 293°
2026-05-05 11:58 50.03377 8.20501 7012 ft 279 kts 293°
2026-05-05 11:58 50.04193 8.17744 7646 ft 282 kts 293°
2026-05-05 11:58 50.05000 8.14997 8301 ft 284 kts 293°
2026-05-05 11:59 50.05898 8.12232 8966 ft 288 kts 301°
2026-05-05 11:59 50.07191 8.09804 9588 ft 294 kts 315°
2026-05-05 11:59 50.08764 8.07719 10112 ft 302 kts 320°
2026-05-05 11:59 50.10473 8.05665 10358 ft 318 kts 322°
2026-05-05 12:00 50.12296 8.03541 10604 ft 334 kts 322°
2026-05-05 12:00 50.14209 8.01331 10849 ft 350 kts 322°
2026-05-05 12:00 50.16205 7.99033 11129 ft 363 kts 322°
2026-05-05 12:00 50.18241 7.96688 11567 ft 371 kts 322°
2026-05-05 12:01 50.20336 7.94273 12121 ft 375 kts 322°
2026-05-05 12:01 50.22445 7.91840 12693 ft 379 kts 322°
2026-05-05 12:01 50.24577 7.89377 13261 ft 383 kts 322°
2026-05-05 12:01 50.26730 7.86889 13809 ft 386 kts 322°
2026-05-05 12:02 50.28906 7.84369 14354 ft 389 kts 322°
2026-05-05 12:02 50.31094 7.81831 14878 ft 392 kts 322°
2026-05-05 12:02 50.33289 7.79283 15401 ft 395 kts 322°
2026-05-05 12:02 50.35507 7.76706 15924 ft 398 kts 322°
2026-05-05 12:03 50.37715 7.74138 16427 ft 401 kts 322°
2026-05-05 12:03 50.39964 7.71519 16937 ft 404 kts 321°
2026-05-05 12:03 50.42228 7.68880 17472 ft 406 kts 321°
2026-05-05 12:03 50.44512 7.66212 17980 ft 409 kts 321°
2026-05-05 12:04 50.46808 7.63528 18411 ft 412 kts 321°
2026-05-05 12:04 50.49115 7.60828 18805 ft 415 kts 321°
2026-05-05 12:04 50.51412 7.58136 19215 ft 418 kts 321°
2026-05-05 12:04 50.53752 7.55389 19629 ft 421 kts 321°
2026-05-05 12:05 50.56122 7.52670 20029 ft 424 kts 324°
2026-05-05 12:05 50.58593 7.50087 20422 ft 427 kts 325°
2026-05-05 12:05 50.61096 7.47534 20814 ft 430 kts 325°
2026-05-05 12:05 50.63618 7.44965 21207 ft 433 kts 325°
2026-05-05 12:06 50.66161 7.42367 21588 ft 435 kts 325°
2026-05-05 12:06 50.68709 7.39757 22019 ft 438 kts 325°
2026-05-05 12:06 50.71276 7.37117 22423 ft 442 kts 325°
2026-05-05 12:06 50.73726 7.34280 22775 ft 442 kts 316°
2026-05-05 12:07 50.75846 7.30772 23134 ft 442 kts 307°
2026-05-05 12:07 50.77747 7.26948 23471 ft 443 kts 304°
2026-05-05 12:07 50.79552 7.22973 23809 ft 445 kts 302°
2026-05-05 12:07 50.81310 7.18936 24166 ft 446 kts 301°
2026-05-05 12:08 50.83058 7.14879 24513 ft 447 kts 301°
2026-05-05 12:08 50.84816 7.10813 24843 ft 448 kts 301°
2026-05-05 12:08 50.86594 7.06733 25186 ft 449 kts 302°
2026-05-05 12:08 50.88381 7.02661 25487 ft 451 kts 302°
2026-05-05 12:09 50.90166 6.98615 25843 ft 453 kts 302°
2026-05-05 12:09 50.91982 6.94505 26273 ft 454 kts 302°
2026-05-05 12:09 50.93798 6.90387 26619 ft 456 kts 302°
2026-05-05 12:09 50.95626 6.86249 26955 ft 457 kts 302°
2026-05-05 12:10 50.97457 6.82100 27256 ft 458 kts 301°
2026-05-05 12:10 50.99267 6.77994 27577 ft 460 kts 301°
2026-05-05 12:10 51.01109 6.73805 27883 ft 461 kts 301°
2026-05-05 12:10 51.02951 6.69607 28184 ft 462 kts 301°
2026-05-05 12:11 51.04791 6.65406 28478 ft 464 kts 301°
2026-05-05 12:11 51.06644 6.61165 28772 ft 466 kts 302°
2026-05-05 12:11 51.08478 6.56959 28917 ft 471 kts 302°
2026-05-05 12:11 51.10344 6.52672 29194 ft 472 kts 302°
2026-05-05 12:12 51.12216 6.48366 29500 ft 473 kts 301°
2026-05-05 12:12 51.14101 6.44024 29795 ft 475 kts 301°
2026-05-05 12:12 51.15980 6.39685 30065 ft 476 kts 301°
2026-05-05 12:12 51.17843 6.35378 30309 ft 477 kts 301°
2026-05-05 12:13 51.19728 6.31013 30608 ft 476 kts 301°
2026-05-05 12:13 51.21603 6.26666 31017 ft 473 kts 301°
2026-05-05 12:13 51.23465 6.22341 31422 ft 471 kts 300°
2026-05-05 12:13 51.25314 6.18040 31781 ft 469 kts 300°
2026-05-05 12:14 51.27162 6.13728 32001 ft 470 kts 300°
2026-05-05 12:14 51.28968 6.09443 32290 ft 469 kts 299°
2026-05-05 12:14 51.30766 6.05090 32629 ft 467 kts 298°
2026-05-05 12:14 51.32545 6.00736 32963 ft 465 kts 298°
2026-05-05 12:15 51.34311 5.96393 33283 ft 464 kts 298°
2026-05-05 12:15 51.36070 5.92061 33586 ft 462 kts 297°
2026-05-05 12:15 51.37940 5.87859 33872 ft 466 kts 304°
2026-05-05 12:15 51.40046 5.83982 34106 ft 467 kts 307°
2026-05-05 12:16 51.42249 5.80127 34310 ft 468 kts 308°
2026-05-05 12:16 51.44485 5.76318 34534 ft 467 kts 308°
2026-05-05 12:16 51.46720 5.72559 34780 ft 466 kts 309°
2026-05-05 12:16 51.48972 5.68782 34949 ft 467 kts 309°
2026-05-05 12:17 51.51188 5.65058 35107 ft 467 kts 309°
2026-05-05 12:17 51.53454 5.61237 35302 ft 466 kts 309°
2026-05-05 12:17 51.55659 5.57506 35465 ft 466 kts 309°
2026-05-05 12:17 51.57893 5.53713 35647 ft 466 kts 309°
2026-05-05 12:18 51.60119 5.49923 35816 ft 466 kts 309°
2026-05-05 12:18 51.62345 5.46125 35982 ft 466 kts 309°
2026-05-05 12:18 51.64567 5.42328 36140 ft 466 kts 309°
2026-05-05 12:18 51.66792 5.38519 36297 ft 466 kts 309°
2026-05-05 12:19 51.69017 5.34705 36461 ft 466 kts 309°
2026-05-05 12:19 51.71208 5.30945 36695 ft 464 kts 309°
2026-05-05 12:19 51.73422 5.27140 36843 ft 464 kts 309°
2026-05-05 12:19 51.75635 5.23329 36983 ft 464 kts 309°
2026-05-05 12:20 51.77846 5.19517 37129 ft 464 kts 309°
2026-05-05 12:20 51.80050 5.15710 37261 ft 464 kts 309°
2026-05-05 12:20 51.82254 5.11898 37399 ft 464 kts 309°
2026-05-05 12:20 51.84461 5.08075 37538 ft 464 kts 310°
2026-05-05 12:21 51.86639 5.04297 37669 ft 463 kts 310°
2026-05-05 12:21 51.88841 5.00472 37802 ft 463 kts 310°
2026-05-05 12:21 51.91046 4.96635 37910 ft 464 kts 310°
2026-05-05 12:21 51.93221 4.92843 37923 ft 465 kts 310°
2026-05-05 12:22 51.97623 4.85153 37929 ft 464 kts 310°
2026-05-05 12:22 52.02012 4.77463 37930 ft 463 kts 310°
2026-05-05 12:23 52.06396 4.69757 37933 ft 463 kts 310°
2026-05-05 12:23 52.10029 4.63352 37933 ft 463 kts 310°
2026-05-05 12:24 52.15108 4.54370 37933 ft 463 kts 310°
2026-05-05 12:24 52.18742 4.47925 37933 ft 463 kts 310°
2026-05-05 12:25 52.23078 4.40210 37941 ft 462 kts 310°
2026-05-05 12:25 52.27412 4.32478 37941 ft 461 kts 310°
2026-05-05 12:26 52.31745 4.24721 37947 ft 461 kts 310°
2026-05-05 12:26 52.36050 4.16993 37948 ft 461 kts 310°
2026-05-05 12:27 52.40374 4.09203 37954 ft 461 kts 310°
2026-05-05 12:27 52.44693 4.01400 37958 ft 461 kts 309°
2026-05-05 12:28 52.49005 3.93584 37962 ft 462 kts 309°
2026-05-05 12:28 52.53298 3.85776 37963 ft 463 kts 309°
2026-05-05 12:29 52.57611 3.77910 37968 ft 463 kts 309°
2026-05-05 12:29 52.61904 3.70055 37974 ft 463 kts 309°
2026-05-05 12:30 52.66206 3.62157 37974 ft 463 kts 309°
2026-05-05 12:30 52.70509 3.54233 37982 ft 463 kts 309°
2026-05-05 12:31 52.74806 3.46294 37988 ft 463 kts 309°
2026-05-05 12:31 52.79066 3.38399 37979 ft 463 kts 309°
2026-05-05 12:32 52.83352 3.30430 37985 ft 463 kts 309°
2026-05-05 12:32 52.87628 3.22454 37982 ft 462 kts 309°
2026-05-05 12:33 52.91218 3.13732 37979 ft 456 kts 292°
2026-05-05 12:33 52.93188 3.03889 37980 ft 452 kts 282°
2026-05-05 12:34 52.94584 2.93709 37990 ft 452 kts 280°
2026-05-05 12:34 52.95866 2.83535 37990 ft 452 kts 280°
2026-05-05 12:35 52.97164 2.73294 37990 ft 452 kts 280°
2026-05-05 12:35 52.98474 2.63068 37991 ft 452 kts 280°
2026-05-05 12:36 52.99776 2.52919 37993 ft 451 kts 280°
2026-05-05 12:36 53.01079 2.42693 37993 ft 451 kts 280°
2026-05-05 12:37 53.02361 2.32541 37993 ft 451 kts 280°
2026-05-05 12:37 53.03642 2.22320 37996 ft 451 kts 280°
2026-05-05 12:38 53.04916 2.12080 37998 ft 451 kts 280°
2026-05-05 12:38 53.06179 2.01845 37999 ft 451 kts 280°
2026-05-05 12:39 53.07425 1.91663 37999 ft 452 kts 280°
2026-05-05 12:39 53.08672 1.81394 37999 ft 452 kts 280°
2026-05-05 12:40 53.09911 1.71121 37998 ft 452 kts 280°
2026-05-05 12:40 53.11133 1.60907 37998 ft 452 kts 279°
2026-05-05 12:41 53.12352 1.50630 38000 ft 452 kts 280°
2026-05-05 12:41 53.13565 1.40330 37998 ft 453 kts 279°
2026-05-05 12:42 53.14768 1.30035 38001 ft 453 kts 279°
2026-05-05 12:42 53.15955 1.19795 38000 ft 453 kts 279°
2026-05-05 12:43 53.17143 1.09466 38001 ft 453 kts 279°
2026-05-05 12:43 53.18321 0.99132 37998 ft 453 kts 279°
2026-05-05 12:44 53.19485 0.88842 37999 ft 453 kts 279°
2026-05-05 12:44 53.20646 0.78497 37994 ft 453 kts 279°
2026-05-05 12:45 53.21793 0.68188 37996 ft 453 kts 279°
2026-05-05 12:45 53.22937 0.57823 37992 ft 453 kts 279°
2026-05-05 12:46 53.24070 0.47471 37996 ft 453 kts 279°
2026-05-05 12:46 53.25196 0.37096 37990 ft 454 kts 279°
2026-05-05 12:47 53.26305 0.26782 37990 ft 452 kts 279°
2026-05-05 12:47 53.27408 0.16443 37997 ft 451 kts 279°
2026-05-05 12:48 53.28500 0.06113 37990 ft 452 kts 279°
2026-05-05 12:48 53.29584 -0.04234 37996 ft 452 kts 279°
2026-05-05 12:49 53.30653 -0.14532 37996 ft 452 kts 279°
2026-05-05 12:49 53.31723 -0.24928 37996 ft 452 kts 279°
2026-05-05 12:50 53.32781 -0.35297 37995 ft 452 kts 279°
2026-05-05 12:50 53.33830 -0.45670 37994 ft 452 kts 279°
2026-05-05 12:51 53.34864 -0.55995 37994 ft 452 kts 278°
2026-05-05 12:51 53.35895 -0.66378 37993 ft 452 kts 278°
2026-05-05 12:52 53.36919 -0.76787 37994 ft 452 kts 278°
2026-05-05 12:52 53.37927 -0.87112 37991 ft 452 kts 278°
2026-05-05 12:53 53.38933 -0.97520 37993 ft 452 kts 278°
2026-05-05 12:53 53.39930 -1.07948 37999 ft 452 kts 278°
2026-05-05 12:54 53.41400 -1.23499 37999 ft 452 kts 278°
2026-05-05 12:55 53.42373 -1.33936 38004 ft 452 kts 278°
2026-05-05 12:55 53.43336 -1.44359 38009 ft 452 kts 278°
2026-05-05 12:56 53.44286 -1.54739 38005 ft 452 kts 278°
2026-05-05 12:56 53.45231 -1.65175 38020 ft 452 kts 278°
2026-05-05 12:57 53.46168 -1.75616 38019 ft 452 kts 278°
2026-05-05 12:57 53.47096 -1.86059 38023 ft 452 kts 278°
2026-05-05 12:58 53.48008 -1.96446 38023 ft 452 kts 277°
2026-05-05 12:58 53.48916 -2.06897 38032 ft 452 kts 277°
2026-05-05 12:59 53.49817 -2.17369 38031 ft 452 kts 277°
2026-05-05 12:59 53.50707 -2.27824 38035 ft 452 kts 277°
2026-05-05 13:00 53.52019 -2.43450 38037 ft 452 kts 277°
2026-05-05 13:01 53.53741 -2.64343 38033 ft 450 kts 277°
2026-05-05 13:01 53.54587 -2.74779 38036 ft 448 kts 277°
2026-05-05 13:02 53.55418 -2.85144 38044 ft 449 kts 277°
2026-05-05 13:02 53.56243 -2.95557 38046 ft 447 kts 277°
2026-05-05 13:03 53.57057 -3.05950 38048 ft 448 kts 277°
2026-05-05 13:03 53.57865 -3.16380 38048 ft 449 kts 277°
2026-05-05 13:04 53.58659 -3.26752 38049 ft 449 kts 277°
2026-05-05 13:04 53.59452 -3.37227 38049 ft 450 kts 277°
2026-05-05 13:05 53.60235 -3.47700 38048 ft 450 kts 277°
2026-05-05 13:05 53.61004 -3.58111 38049 ft 450 kts 277°
2026-05-05 13:06 53.61734 -3.68619 38050 ft 451 kts 275°
2026-05-05 13:06 53.62213 -3.79149 38055 ft 451 kts 274°
2026-05-05 13:07 53.62603 -3.89649 38056 ft 451 kts 273°
2026-05-05 13:07 53.63001 -4.00228 38058 ft 451 kts 274°
2026-05-05 13:08 53.63340 -4.08990 38058 ft 451 kts 274°
2026-05-05 13:08 53.63812 -4.21264 38062 ft 451 kts 274°
2026-05-05 13:09 53.64145 -4.30087 38062 ft 449 kts 273°
2026-05-05 13:09 53.64531 -4.40553 38066 ft 450 kts 273°
2026-05-05 13:10 53.64910 -4.51086 38064 ft 449 kts 273°
2026-05-05 13:10 53.65278 -4.61624 38069 ft 449 kts 273°
2026-05-05 13:11 53.65635 -4.72098 38069 ft 449 kts 273°
2026-05-05 13:11 53.65985 -4.82621 38075 ft 449 kts 273°
2026-05-05 13:12 53.66328 -4.93137 38072 ft 449 kts 273°
2026-05-05 13:12 53.66663 -5.03611 38078 ft 449 kts 273°
2026-05-05 13:13 53.66990 -5.14138 38079 ft 449 kts 272°
2026-05-05 13:13 53.67303 -5.24679 38078 ft 449 kts 272°
2026-05-05 13:14 53.67601 -5.35161 38078 ft 449 kts 272°
2026-05-05 13:14 53.67892 -5.45705 38078 ft 449 kts 272°
2026-05-05 13:15 53.67806 -5.56172 38081 ft 449 kts 268°
2026-05-05 13:15 53.67497 -5.66717 38080 ft 449 kts 267°
2026-05-05 13:16 53.67141 -5.77182 38078 ft 449 kts 266°
2026-05-05 13:16 53.66775 -5.87710 38078 ft 449 kts 266°
2026-05-05 13:17 53.66407 -5.98229 38078 ft 449 kts 266°
2026-05-05 13:17 53.66032 -6.08752 38077 ft 449 kts 266°
2026-05-05 13:18 53.65652 -6.19188 38075 ft 449 kts 266°
2026-05-05 13:18 53.65260 -6.29700 38072 ft 449 kts 266°
2026-05-05 13:19 53.64858 -6.40200 38071 ft 449 kts 266°
2026-05-05 13:19 53.64447 -6.50710 38070 ft 449 kts 266°
2026-05-05 13:20 53.64029 -6.61149 38070 ft 449 kts 266°
2026-05-05 13:20 53.63600 -6.71657 38069 ft 449 kts 266°
2026-05-05 13:21 53.63161 -6.82158 38069 ft 449 kts 266°
2026-05-05 13:21 53.62716 -6.92590 38073 ft 449 kts 266°
2026-05-05 13:22 53.62258 -7.03110 38069 ft 449 kts 266°
2026-05-05 13:22 53.61792 -7.13617 38072 ft 449 kts 266°
2026-05-05 13:23 53.61315 -7.24129 38075 ft 449 kts 266°
2026-05-05 13:23 53.60832 -7.34577 38075 ft 450 kts 266°
2026-05-05 13:24 53.60338 -7.45089 38073 ft 450 kts 265°
2026-05-05 13:24 53.59833 -7.55610 38078 ft 450 kts 265°
2026-05-05 13:25 53.59324 -7.66052 38078 ft 450 kts 265°
2026-05-05 13:25 53.58801 -7.76569 38078 ft 450 kts 265°
2026-05-05 13:26 53.58268 -7.87087 38079 ft 450 kts 265°
2026-05-05 13:26 53.57729 -7.97549 38079 ft 450 kts 265°
2026-05-05 13:27 53.57178 -8.08063 38077 ft 450 kts 265°
2026-05-05 13:27 53.56619 -8.18558 38086 ft 450 kts 265°
2026-05-05 13:28 53.56053 -8.29002 38086 ft 450 kts 265°
2026-05-05 13:28 53.55475 -8.39498 38090 ft 450 kts 265°
2026-05-05 13:29 53.54887 -8.50020 38087 ft 450 kts 265°
2026-05-05 13:29 53.54293 -8.60453 38098 ft 450 kts 265°
2026-05-05 13:30 53.53687 -8.70949 38094 ft 450 kts 265°
2026-05-05 13:30 53.53073 -8.81436 38104 ft 450 kts 265°
2026-05-05 13:31 53.52449 -8.91914 38103 ft 450 kts 265°
2026-05-05 13:31 53.51821 -9.02313 38104 ft 450 kts 264°
2026-05-05 13:32 53.51179 -9.12786 38105 ft 450 kts 264°
2026-05-05 13:32 53.50528 -9.23256 38111 ft 450 kts 264°
2026-05-05 13:33 53.49872 -9.33664 38109 ft 450 kts 264°
2026-05-05 13:33 53.49206 -9.44065 38117 ft 450 kts 264°
2026-05-05 13:34 53.48526 -9.54553 38121 ft 451 kts 264°
2026-05-05 13:34 53.47837 -9.65033 38121 ft 451 kts 264°
2026-05-05 13:35 53.47143 -9.75450 38129 ft 451 kts 264°
2026-05-05 13:35 53.46437 -9.85907 38126 ft 451 kts 264°
2026-05-05 13:36 53.45721 -9.96355 38133 ft 450 kts 264°
2026-05-05 13:36 53.45000 -10.06756 38132 ft 450 kts 264°
2026-05-05 13:37 53.44269 -10.17163 38140 ft 450 kts 264°
2026-05-05 13:37 53.43527 -10.27602 38140 ft 450 kts 264°
2026-05-05 13:38 53.42775 -10.38052 38139 ft 450 kts 264°
2026-05-05 13:38 53.42015 -10.48474 38145 ft 450 kts 264°
2026-05-05 13:39 53.41245 -10.58906 38143 ft 450 kts 263°
2026-05-05 13:39 53.40471 -10.69256 38143 ft 450 kts 263°
2026-05-05 13:40 53.39684 -10.79675 38151 ft 450 kts 263°
2026-05-05 13:40 53.38886 -10.90101 38151 ft 450 kts 263°
2026-05-05 13:41 53.38081 -11.00502 38157 ft 450 kts 263°
2026-05-05 13:41 53.37271 -11.10852 38157 ft 450 kts 263°
2026-05-05 13:42 53.36447 -11.21256 38157 ft 450 kts 263°
2026-05-05 13:42 53.35613 -11.31664 38157 ft 450 kts 263°
2026-05-05 13:43 53.34776 -11.42008 38161 ft 450 kts 263°
2026-05-05 13:43 53.33924 -11.52409 38162 ft 451 kts 263°
2026-05-05 13:44 53.33063 -11.62802 38165 ft 451 kts 263°
2026-05-05 13:44 53.32193 -11.73208 38165 ft 451 kts 263°
2026-05-05 13:45 53.31318 -11.83545 38170 ft 451 kts 263°
2026-05-05 13:45 53.30428 -11.93952 38170 ft 450 kts 263°
2026-05-05 13:46 53.29538 -12.04261 38170 ft 450 kts 263°
2026-05-05 13:46 53.28632 -12.14640 38170 ft 450 kts 262°
2026-05-05 13:47 53.27722 -12.24956 38176 ft 450 kts 262°
2026-05-05 13:47 53.26797 -12.35334 38176 ft 450 kts 262°
2026-05-05 13:48 53.25870 -12.45632 38179 ft 450 kts 262°
2026-05-05 13:48 53.24927 -12.56007 38179 ft 450 kts 262°
2026-05-05 13:49 53.23977 -12.66345 38184 ft 450 kts 262°
2026-05-05 13:49 53.23024 -12.76632 38184 ft 450 kts 262°
2026-05-05 13:50 53.22056 -12.86968 38197 ft 450 kts 262°
2026-05-05 13:50 53.21569 -12.92119 38371 ft 445 kts 262°
2026-05-05 13:50 53.21093 -12.97140 38640 ft 442 kts 262°
2026-05-05 13:51 53.20611 -13.02200 38905 ft 439 kts 262°
2026-05-05 13:51 53.20130 -13.07224 39116 ft 435 kts 262°
2026-05-05 13:51 53.19173 -13.17167 39191 ft 438 kts 262°
2026-05-05 13:52 53.18192 -13.27275 39193 ft 443 kts 262°
2026-05-05 13:52 53.17199 -13.37411 39194 ft 447 kts 262°
2026-05-05 13:53 53.16178 -13.47723 39194 ft 452 kts 262°
2026-05-05 13:53 53.15144 -13.58073 39192 ft 452 kts 262°
2026-05-05 13:54 53.14108 -13.68345 39195 ft 452 kts 262°
2026-05-05 13:54 53.13057 -13.78671 39198 ft 452 kts 262°
2026-05-05 13:55 53.11997 -13.89005 39194 ft 452 kts 262°
2026-05-05 13:55 53.11109 -13.97582 39197 ft 451 kts 262°
2026-05-05 13:56 53.09859 -14.09562 39198 ft 451 kts 262°
2026-05-05 13:56 53.08956 -14.18138 39203 ft 451 kts 262°
2026-05-05 13:57 53.07864 -14.28428 39203 ft 452 kts 261°
2026-05-05 13:57 53.06762 -14.38722 39200 ft 452 kts 261°
2026-05-05 13:58 53.05658 -14.48939 39206 ft 451 kts 261°
2026-05-05 13:58 53.04538 -14.59231 39208 ft 451 kts 261°
2026-05-05 13:59 53.02842 -14.74642 39208 ft 451 kts 261°
2026-05-05 14:00 53.01126 -14.90058 39211 ft 457 kts 262°
2026-05-05 14:00 53.00834 -15.00596 39215 ft 458 kts 278°
2026-05-05 14:01 53.02402 -15.10875 39213 ft 461 kts 289°
2026-05-05 14:01 53.04601 -15.20892 39215 ft 465 kts 291°
2026-05-05 14:02 53.06915 -15.30965 39216 ft 465 kts 291°
2026-05-05 14:02 53.09197 -15.41060 39216 ft 465 kts 291°
2026-05-05 14:03 53.11427 -15.51104 39217 ft 465 kts 290°
2026-05-05 14:03 53.13658 -15.61251 39219 ft 465 kts 290°
2026-05-05 14:04 53.15871 -15.71369 39219 ft 465 kts 290°
2026-05-05 14:04 53.18065 -15.81444 39219 ft 465 kts 290°
2026-05-05 14:05 53.20270 -15.91619 39217 ft 465 kts 290°
2026-05-05 14:05 53.22463 -16.01782 39219 ft 465 kts 290°
2026-05-05 14:06 53.24636 -16.11905 39222 ft 466 kts 290°
2026-05-05 14:06 53.26817 -16.22117 39225 ft 466 kts 290°
2026-05-05 14:07 53.28989 -16.32337 39225 ft 466 kts 290°
2026-05-05 14:07 53.31138 -16.42504 39225 ft 466 kts 290°
2026-05-05 14:08 53.33295 -16.52755 39222 ft 466 kts 290°
2026-05-05 14:08 53.35437 -16.62992 39223 ft 466 kts 290°
2026-05-05 14:09 53.37561 -16.73189 39224 ft 466 kts 289°
2026-05-05 14:09 53.39688 -16.83455 39225 ft 465 kts 289°
2026-05-05 14:10 53.41791 -16.93660 39230 ft 465 kts 289°
2026-05-05 14:10 53.43900 -17.03945 39231 ft 465 kts 289°
2026-05-05 14:11 53.46002 -17.14249 39230 ft 465 kts 289°
2026-05-05 14:11 53.48062 -17.24400 39230 ft 465 kts 289°
2026-05-05 14:12 53.50144 -17.34715 39233 ft 465 kts 289°
2026-05-05 14:12 53.52216 -17.45031 39233 ft 465 kts 289°
2026-05-05 14:13 53.54281 -17.55367 39233 ft 465 kts 289°
2026-05-05 14:13 53.56323 -17.65644 39233 ft 465 kts 289°
2026-05-05 14:14 53.58366 -17.75978 39235 ft 465 kts 289°
2026-05-05 14:14 53.60405 -17.86350 39236 ft 465 kts 289°
2026-05-05 14:15 53.62419 -17.96646 39233 ft 465 kts 289°
2026-05-05 14:15 53.64436 -18.07017 39240 ft 465 kts 289°
2026-05-05 14:16 53.66448 -18.17415 39238 ft 465 kts 289°
2026-05-05 14:16 53.68435 -18.27741 39238 ft 465 kts 289°
2026-05-05 14:17 53.70427 -18.38148 39241 ft 465 kts 289°
2026-05-05 14:17 53.72407 -18.48552 39241 ft 465 kts 288°
2026-05-05 14:18 53.74367 -18.58907 39235 ft 465 kts 288°
2026-05-05 14:18 53.76331 -18.69339 39241 ft 465 kts 288°
2026-05-05 14:19 53.78285 -18.79781 39247 ft 465 kts 288°
2026-05-05 14:19 53.80226 -18.90206 39243 ft 465 kts 288°
2026-05-05 14:20 53.82150 -19.00598 39241 ft 465 kts 288°
2026-05-05 14:20 53.84078 -19.11071 39244 ft 465 kts 288°
2026-05-05 14:21 53.85995 -19.21545 39241 ft 465 kts 288°
2026-05-05 14:21 53.87892 -19.31967 39246 ft 465 kts 288°
2026-05-05 14:22 53.89790 -19.42454 39246 ft 465 kts 288°
2026-05-05 14:22 53.91681 -19.52964 39246 ft 465 kts 288°
2026-05-05 14:23 53.93563 -19.63479 39249 ft 465 kts 288°
2026-05-05 14:23 53.95423 -19.73938 39249 ft 465 kts 288°
2026-05-05 14:24 53.97288 -19.84485 39239 ft 465 kts 288°
2026-05-05 14:24 53.99135 -19.94989 39247 ft 465 kts 287°
2026-05-05 14:25 54.00224 -20.05863 39251 ft 467 kts 277°
2026-05-05 14:25 54.00753 -20.16896 39249 ft 468 kts 276°
2026-05-05 14:26 54.01168 -20.27890 39256 ft 469 kts 275°
2026-05-05 14:26 54.01574 -20.38966 39252 ft 469 kts 275°
2026-05-05 14:27 54.01985 -20.50033 39253 ft 469 kts 276°
2026-05-05 14:27 54.02394 -20.61125 39255 ft 470 kts 276°
2026-05-05 14:28 54.02795 -20.72222 39254 ft 470 kts 276°
2026-05-05 14:28 54.03183 -20.83265 39254 ft 470 kts 275°
2026-05-05 14:29 54.03564 -20.94394 39257 ft 470 kts 275°
2026-05-05 14:29 54.03933 -21.05514 39257 ft 470 kts 275°
2026-05-05 14:30 54.04290 -21.16568 39260 ft 470 kts 275°
2026-05-05 14:30 54.04639 -21.27684 39260 ft 470 kts 275°
2026-05-05 14:31 54.04978 -21.38803 39263 ft 470 kts 275°
2026-05-05 14:31 54.05307 -21.49932 39263 ft 470 kts 275°
2026-05-05 14:32 54.05623 -21.60994 39250 ft 470 kts 275°
2026-05-05 14:32 54.05931 -21.72122 39265 ft 471 kts 275°
2026-05-05 14:33 54.06230 -21.83278 39262 ft 471 kts 275°
2026-05-05 14:33 54.06518 -21.94433 39263 ft 471 kts 275°
2026-05-05 14:34 54.06794 -22.05503 39265 ft 471 kts 275°
2026-05-05 14:34 54.07061 -22.16671 39265 ft 471 kts 275°
2026-05-05 14:35 54.07318 -22.27817 39268 ft 471 kts 275°
2026-05-05 14:35 54.07563 -22.38898 39268 ft 471 kts 275°
2026-05-05 14:36 54.07800 -22.50072 39268 ft 471 kts 274°
2026-05-05 14:36 54.08026 -22.61189 39268 ft 471 kts 274°
2026-05-05 14:37 54.08242 -22.72357 39271 ft 471 kts 274°
2026-05-05 14:37 54.08446 -22.83449 39267 ft 471 kts 274°
2026-05-05 14:38 54.08641 -22.94611 39277 ft 471 kts 274°
2026-05-05 14:38 54.08826 -23.05782 39275 ft 471 kts 274°
2026-05-05 14:39 54.09000 -23.16881 39269 ft 471 kts 274°
2026-05-05 14:39 54.09165 -23.28060 39281 ft 471 kts 274°
2026-05-05 14:40 54.09319 -23.39222 39277 ft 471 kts 274°
2026-05-05 14:40 54.09461 -23.50304 39279 ft 471 kts 274°
2026-05-05 14:41 54.09595 -23.61483 39278 ft 471 kts 274°
2026-05-05 14:41 54.09717 -23.72580 39278 ft 470 kts 274°
2026-05-05 14:42 54.09830 -23.83757 39278 ft 470 kts 274°
2026-05-05 14:42 54.09916 -23.93041 39269 ft 470 kts 274°
2026-05-05 14:43 54.10024 -24.06004 39287 ft 470 kts 274°
2026-05-05 14:43 54.10093 -24.15282 39278 ft 470 kts 274°
2026-05-05 14:44 54.10166 -24.26436 39286 ft 470 kts 274°
2026-05-05 14:44 54.10228 -24.37590 39291 ft 470 kts 274°
2026-05-05 14:45 54.10281 -24.48677 39270 ft 470 kts 273°
2026-05-05 14:45 54.10323 -24.59818 39281 ft 469 kts 273°
2026-05-05 14:46 54.10355 -24.70879 39284 ft 469 kts 273°
2026-05-05 14:46 54.10376 -24.82021 39291 ft 469 kts 273°
2026-05-05 14:47 54.10388 -24.93166 39284 ft 469 kts 273°
2026-05-05 14:47 54.10389 -25.04231 39288 ft 469 kts 273°
2026-05-05 14:48 54.10380 -25.15374 39292 ft 469 kts 273°
2026-05-05 14:48 54.10360 -25.26439 39291 ft 468 kts 273°
2026-05-05 14:49 54.10331 -25.37574 39296 ft 468 kts 273°
2026-05-05 14:49 54.10292 -25.48625 39296 ft 468 kts 273°
2026-05-05 14:50 54.10242 -25.59741 39294 ft 468 kts 272°
2026-05-05 14:50 54.10182 -25.70781 39291 ft 468 kts 272°
2026-05-05 14:51 54.10111 -25.81894 39291 ft 467 kts 272°
2026-05-05 14:51 54.10031 -25.92925 39289 ft 467 kts 272°
2026-05-05 14:52 54.09941 -26.04001 39296 ft 467 kts 272°
2026-05-05 14:52 54.09840 -26.15092 39296 ft 467 kts 272°
2026-05-05 14:53 54.09730 -26.26113 39281 ft 467 kts 272°
2026-05-05 14:53 54.09609 -26.37195 39296 ft 467 kts 272°
2026-05-05 14:54 54.09478 -26.48216 39304 ft 467 kts 272°
2026-05-05 14:54 54.09337 -26.59290 39299 ft 467 kts 272°
2026-05-05 14:55 54.09186 -26.70370 39302 ft 467 kts 272°
2026-05-05 14:55 54.09025 -26.81389 39312 ft 468 kts 272°
2026-05-05 14:56 54.08853 -26.92509 39305 ft 468 kts 272°
2026-05-05 14:56 54.08672 -27.03537 39306 ft 468 kts 272°
2026-05-05 14:57 54.08479 -27.14634 39306 ft 468 kts 272°
2026-05-05 14:57 54.08276 -27.25758 39306 ft 468 kts 272°
2026-05-05 14:58 54.08064 -27.36795 39306 ft 468 kts 271°
2026-05-05 14:58 54.07841 -27.47898 39302 ft 469 kts 272°
2026-05-05 14:59 54.07607 -27.59028 39305 ft 469 kts 271°
2026-05-05 14:59 54.07364 -27.70068 39307 ft 469 kts 271°
2026-05-05 15:00 54.07152 -27.79374 39308 ft 469 kts 271°
2026-05-05 15:00 54.06845 -27.92291 39308 ft 469 kts 271°
2026-05-05 15:01 54.06571 -28.03410 39306 ft 469 kts 271°
2026-05-05 15:01 54.06287 -28.14467 39308 ft 470 kts 271°
2026-05-05 15:02 54.05991 -28.25597 39308 ft 470 kts 271°
2026-05-05 15:02 54.05687 -28.36675 39311 ft 470 kts 271°
2026-05-05 15:03 54.05370 -28.47823 39311 ft 470 kts 271°
2026-05-05 15:03 54.05043 -28.58954 39304 ft 470 kts 271°
2026-05-05 15:04 54.04709 -28.69990 39314 ft 469 kts 271°
2026-05-05 15:04 54.04363 -28.81074 39314 ft 469 kts 271°
2026-05-05 15:05 54.03824 -28.97733 39311 ft 469 kts 270°
2026-05-05 15:06 54.03452 -29.08840 39314 ft 469 kts 270°
2026-05-05 15:06 54.03072 -29.19869 39310 ft 469 kts 270°
2026-05-05 15:07 54.02680 -29.30953 39316 ft 468 kts 270°
2026-05-05 15:07 54.02281 -29.41960 39315 ft 468 kts 270°
2026-05-05 15:08 54.01869 -29.53026 39303 ft 468 kts 270°
2026-05-05 15:08 54.01447 -29.64086 39308 ft 468 kts 270°
2026-05-05 15:09 54.01016 -29.75126 39299 ft 468 kts 269°
2026-05-05 15:09 54.00578 -29.86096 39306 ft 468 kts 269°
2026-05-05 15:10 54.00138 -29.97128 39303 ft 467 kts 271°
2026-05-05 15:10 54.00337 -30.08127 39300 ft 464 kts 276°
2026-05-05 15:11 54.00751 -30.19026 39300 ft 464 kts 277°
2026-05-05 15:11 54.01204 -30.29999 39300 ft 464 kts 277°
2026-05-05 15:12 54.01642 -30.40969 39300 ft 465 kts 276°
2026-05-05 15:12 54.02058 -30.51911 39298 ft 465 kts 276°
2026-05-05 15:13 54.02462 -30.62903 39298 ft 465 kts 275°
2026-05-05 15:13 54.02855 -30.73888 39292 ft 465 kts 275°
2026-05-05 15:14 54.03236 -30.84809 39292 ft 465 kts 275°
2026-05-05 15:14 54.03611 -30.95807 39292 ft 465 kts 275°
2026-05-05 15:15 54.03975 -31.06802 39291 ft 466 kts 274°
2026-05-05 15:15 54.04331 -31.17836 39291 ft 466 kts 274°
2026-05-05 15:16 54.04676 -31.28862 39284 ft 466 kts 274°
2026-05-05 15:16 54.05009 -31.39829 39285 ft 467 kts 274°
2026-05-05 15:17 54.05335 -31.50886 39282 ft 467 kts 274°
2026-05-05 15:17 54.05650 -31.61946 39272 ft 467 kts 273°
2026-05-05 15:18 54.05954 -31.72922 39279 ft 466 kts 273°
2026-05-05 15:18 54.06248 -31.83962 39273 ft 466 kts 273°
2026-05-05 15:19 54.06533 -31.95014 39274 ft 466 kts 273°
2026-05-05 15:19 54.06807 -32.06041 39271 ft 466 kts 273°
2026-05-05 15:20 54.07070 -32.17025 39275 ft 467 kts 273°
2026-05-05 15:20 54.07325 -32.28078 39264 ft 466 kts 272°
2026-05-05 15:21 54.07571 -32.39176 39266 ft 468 kts 271°
2026-05-05 15:21 54.07803 -32.50159 39268 ft 467 kts 271°
2026-05-05 15:22 54.08028 -32.61252 39260 ft 468 kts 271°
2026-05-05 15:22 54.08241 -32.72281 39257 ft 466 kts 271°
2026-05-05 15:23 54.08445 -32.83360 39254 ft 468 kts 271°
2026-05-05 15:23 54.08640 -32.94454 39250 ft 467 kts 270°
2026-05-05 15:24 54.08823 -33.05492 39247 ft 470 kts 270°
2026-05-05 15:24 54.08997 -33.16626 39244 ft 469 kts 270°
2026-05-05 15:25 54.09161 -33.27688 39244 ft 470 kts 270°
2026-05-05 15:25 54.09315 -33.38822 39234 ft 469 kts 269°
2026-05-05 15:26 54.09458 -33.49939 39233 ft 469 kts 269°
2026-05-05 15:26 54.09591 -33.61083 39232 ft 471 kts 269°
2026-05-05 15:27 54.09713 -33.72207 39226 ft 473 kts 269°
2026-05-05 15:27 54.09827 -33.83431 39229 ft 473 kts 269°
2026-05-05 15:28 54.09930 -33.94653 39226 ft 473 kts 269°
2026-05-05 15:28 54.10023 -34.05806 39219 ft 473 kts 268°
2026-05-05 15:29 54.10105 -34.17055 39219 ft 475 kts 269°
2026-05-05 15:29 54.10177 -34.28312 39219 ft 475 kts 268°
2026-05-05 15:30 54.10239 -34.39577 39208 ft 475 kts 268°
2026-05-05 15:30 54.10290 -34.50781 39208 ft 475 kts 268°
2026-05-05 15:31 54.10331 -34.62038 39201 ft 475 kts 268°
2026-05-05 15:31 54.10356 -34.71389 39200 ft 475 kts 268°
2026-05-05 15:32 54.10378 -34.82665 39202 ft 475 kts 268°
2026-05-05 15:32 54.10389 -34.93912 39195 ft 474 kts 267°
2026-05-05 15:33 54.10389 -35.05088 39185 ft 474 kts 267°
2026-05-05 15:33 54.10379 -35.16353 39176 ft 475 kts 267°
2026-05-05 15:34 54.10359 -35.27619 39176 ft 475 kts 267°
2026-05-05 15:34 54.10328 -35.38900 39168 ft 475 kts 266°
2026-05-05 15:35 54.10286 -35.50111 39173 ft 475 kts 266°
2026-05-05 15:35 54.10234 -35.61363 39156 ft 474 kts 266°
2026-05-05 15:36 54.10172 -35.72540 39157 ft 474 kts 266°
2026-05-05 15:36 54.10099 -35.83773 39156 ft 474 kts 266°
2026-05-05 15:37 54.10016 -35.95027 39141 ft 475 kts 266°
2026-05-05 15:37 54.09921 -36.06295 39143 ft 476 kts 266°
2026-05-05 15:38 54.09817 -36.17504 39141 ft 475 kts 266°
2026-05-05 15:38 54.09702 -36.28784 39135 ft 476 kts 266°
2026-05-05 15:39 54.09577 -36.40008 39129 ft 476 kts 266°
2026-05-05 15:39 54.09441 -36.51301 39129 ft 475 kts 266°
2026-05-05 15:40 54.09295 -36.62523 39126 ft 475 kts 266°
2026-05-05 15:40 54.09138 -36.73806 39118 ft 475 kts 265°
2026-05-05 15:41 54.08970 -36.85056 39122 ft 477 kts 265°
2026-05-05 15:41 54.08790 -36.96405 39112 ft 479 kts 265°
2026-05-05 15:42 54.08601 -37.07696 39114 ft 479 kts 265°
2026-05-05 15:42 54.08400 -37.19050 39110 ft 479 kts 265°
2026-05-05 15:43 54.08189 -37.30402 39104 ft 479 kts 265°
2026-05-05 15:43 54.07967 -37.41747 39116 ft 479 kts 265°
2026-05-05 15:44 54.07735 -37.53029 39104 ft 478 kts 265°
2026-05-05 15:44 54.07492 -37.64354 39102 ft 478 kts 265°
2026-05-05 15:45 54.07239 -37.75632 39091 ft 479 kts 265°
2026-05-05 15:45 54.06973 -37.87004 39102 ft 481 kts 265°
2026-05-05 15:46 54.06696 -37.98401 39100 ft 481 kts 265°
2026-05-05 15:46 54.06411 -38.09723 39105 ft 480 kts 264°
2026-05-05 15:47 54.06114 -38.21071 39098 ft 479 kts 264°
2026-05-05 15:47 54.05809 -38.32333 39102 ft 478 kts 264°
2026-05-05 15:48 54.05491 -38.43649 39097 ft 478 kts 264°
2026-05-05 15:48 54.05162 -38.54960 39103 ft 478 kts 264°
2026-05-05 15:49 54.04823 -38.66300 39099 ft 479 kts 264°
2026-05-05 15:49 54.04474 -38.77565 39104 ft 480 kts 264°
2026-05-05 15:50 54.04113 -38.88909 39099 ft 480 kts 264°
2026-05-05 15:50 54.03741 -39.00259 39099 ft 480 kts 263°
2026-05-05 15:51 54.03360 -39.11558 39099 ft 480 kts 263°
2026-05-05 15:51 54.02967 -39.22899 39092 ft 479 kts 263°
2026-05-05 15:52 54.02566 -39.34159 39105 ft 479 kts 263°
2026-05-05 15:52 54.02151 -39.45490 39092 ft 479 kts 263°
2026-05-05 15:53 54.01726 -39.56828 39099 ft 480 kts 263°
2026-05-05 15:53 54.01292 -39.68111 39090 ft 481 kts 263°
2026-05-05 15:54 54.00843 -39.79494 39091 ft 481 kts 263°
2026-05-05 15:54 54.00385 -39.90863 39082 ft 481 kts 263°
2026-05-05 15:55 53.99901 -40.02179 39086 ft 481 kts 262°
2026-05-05 15:55 53.99275 -40.13521 39084 ft 481 kts 261°
2026-05-05 15:56 53.98598 -40.24762 39086 ft 481 kts 261°
2026-05-05 15:56 53.97914 -40.36087 39083 ft 481 kts 261°
2026-05-05 15:57 53.97230 -40.47399 39095 ft 481 kts 261°
2026-05-05 15:57 53.96538 -40.58737 39078 ft 482 kts 261°
2026-05-05 15:58 53.95835 -40.70079 39074 ft 483 kts 261°
2026-05-05 15:58 53.95126 -40.81346 39073 ft 483 kts 261°
2026-05-05 15:59 53.94400 -40.92714 39076 ft 483 kts 260°
2026-05-05 15:59 53.93667 -41.03999 39068 ft 483 kts 260°
2026-05-05 16:00 53.92921 -41.15339 39071 ft 483 kts 260°
2026-05-05 16:00 53.92164 -41.26664 39073 ft 482 kts 260°
2026-05-05 16:01 53.91398 -41.37963 39068 ft 481 kts 260°
2026-05-05 16:01 53.90625 -41.49203 39057 ft 483 kts 260°
2026-05-05 16:02 53.89832 -41.60566 39056 ft 484 kts 260°
2026-05-05 16:02 53.89037 -41.71825 39053 ft 484 kts 260°
2026-05-05 16:03 53.88224 -41.83163 39048 ft 484 kts 259°
2026-05-05 16:03 53.87402 -41.94486 39048 ft 483 kts 259°
2026-05-05 16:04 53.86576 -42.05724 39045 ft 483 kts 259°
2026-05-05 16:04 53.85731 -42.17051 39039 ft 483 kts 259°
2026-05-05 16:05 53.84884 -42.28267 39031 ft 483 kts 259°
2026-05-05 16:05 53.84020 -42.39565 39031 ft 483 kts 259°
2026-05-05 16:06 53.83145 -42.50856 39034 ft 483 kts 259°
2026-05-05 16:06 53.82266 -42.62068 39022 ft 482 kts 259°
2026-05-05 16:07 53.81370 -42.73341 39019 ft 482 kts 259°
2026-05-05 16:07 53.80465 -42.84606 39020 ft 482 kts 259°
2026-05-05 16:08 53.79555 -42.95790 39013 ft 482 kts 259°
2026-05-05 16:08 53.78630 -43.07038 39031 ft 482 kts 259°
2026-05-05 16:09 53.77693 -43.18284 39012 ft 481 kts 258°
2026-05-05 16:09 53.76749 -43.29488 39014 ft 481 kts 258°
2026-05-05 16:10 53.75796 -43.40668 39005 ft 483 kts 258°
2026-05-05 16:10 53.74823 -43.51950 38996 ft 484 kts 258°
2026-05-05 16:11 53.73849 -43.63134 38995 ft 484 kts 258°
2026-05-05 16:12 53.71859 -43.85600 38983 ft 481 kts 258°
2026-05-05 16:13 53.69326 -44.13479 38974 ft 481 kts 258°
2026-05-05 16:13 53.68291 -44.24665 38979 ft 481 kts 258°
2026-05-05 16:14 53.66195 -44.46960 38952 ft 483 kts 258°
2026-05-05 16:15 53.64051 -44.69311 38940 ft 482 kts 257°
2026-05-05 16:16 53.61871 -44.91570 38940 ft 482 kts 257°
2026-05-05 16:17 53.60208 -45.08268 38924 ft 481 kts 257°
2026-05-05 16:18 53.58710 -45.23095 38913 ft 482 kts 257°
2026-05-05 16:19 53.57006 -45.39736 38905 ft 483 kts 257°
2026-05-05 16:19 53.55270 -45.56452 38895 ft 483 kts 257°
2026-05-05 16:20 53.52930 -45.78616 38885 ft 482 kts 257°
2026-05-05 16:22 53.49946 -46.06296 38871 ft 482 kts 257°
2026-05-05 16:23 53.47509 -46.28439 38857 ft 483 kts 256°
2026-05-05 16:23 53.45649 -46.45087 38856 ft 483 kts 256°
2026-05-05 16:24 53.44397 -46.56169 38854 ft 483 kts 256°
2026-05-05 16:25 53.42507 -46.72706 38838 ft 483 kts 256°
2026-05-05 16:25 53.40587 -46.89301 38836 ft 483 kts 256°
2026-05-05 16:26 53.37996 -47.11355 38817 ft 484 kts 256°
2026-05-05 16:27 53.36677 -47.22446 38818 ft 484 kts 256°
2026-05-05 16:27 53.35358 -47.33442 38819 ft 484 kts 256°
2026-05-05 16:28 53.34024 -47.44480 38803 ft 483 kts 256°
2026-05-05 16:28 53.32680 -47.55499 38798 ft 483 kts 255°
2026-05-05 16:29 53.31332 -47.66464 38799 ft 483 kts 255°
2026-05-05 16:29 53.29969 -47.77457 38788 ft 482 kts 255°
2026-05-05 16:30 53.28597 -47.88443 38785 ft 482 kts 256°
2026-05-05 16:30 53.27223 -47.99351 38786 ft 482 kts 256°
2026-05-05 16:31 53.25832 -48.10307 38769 ft 482 kts 255°
2026-05-05 16:31 53.24427 -48.21292 38768 ft 482 kts 255°
2026-05-05 16:32 53.23022 -48.32187 38765 ft 482 kts 255°
2026-05-05 16:32 53.21601 -48.43130 38766 ft 482 kts 255°
2026-05-05 16:33 53.20165 -48.54096 38751 ft 482 kts 255°
2026-05-05 16:33 53.18737 -48.64919 38749 ft 480 kts 256°
2026-05-05 16:34 53.17291 -48.75801 38746 ft 479 kts 255°
2026-05-05 16:34 53.15844 -48.86608 38745 ft 481 kts 254°
2026-05-05 16:35 53.14374 -48.97499 38735 ft 482 kts 255°
2026-05-05 16:35 53.12894 -49.08376 38742 ft 481 kts 255°
2026-05-05 16:36 53.11409 -49.19233 38725 ft 479 kts 255°
2026-05-05 16:36 53.09917 -49.30055 38723 ft 479 kts 255°
2026-05-05 16:37 53.08419 -49.40817 38719 ft 479 kts 255°
2026-05-05 16:37 53.06908 -49.51626 38715 ft 478 kts 255°
2026-05-05 16:38 53.05389 -49.62401 38706 ft 478 kts 254°
2026-05-05 16:38 53.03868 -49.73110 38711 ft 478 kts 254°
2026-05-05 16:39 53.02327 -49.83895 38707 ft 479 kts 255°
2026-05-05 16:39 53.00776 -49.94686 38679 ft 479 kts 255°
2026-05-05 16:40 52.98760 -50.05133 38679 ft 476 kts 247°
2026-05-05 16:40 52.96351 -50.15413 38676 ft 477 kts 246°
2026-05-05 16:41 52.93893 -50.25537 38683 ft 476 kts 246°
2026-05-05 16:41 52.91409 -50.35713 38670 ft 475 kts 246°
2026-05-05 16:42 52.88930 -50.45869 38665 ft 474 kts 246°
2026-05-05 16:42 52.86510 -50.55772 38681 ft 460 kts 246°
2026-05-05 16:43 52.84111 -50.65551 38667 ft 457 kts 246°
2026-05-05 16:43 52.81712 -50.75275 38669 ft 456 kts 247°
2026-05-05 16:44 52.79314 -50.84950 38660 ft 457 kts 246°
2026-05-05 16:44 52.76888 -50.94698 38663 ft 458 kts 246°
2026-05-05 16:45 52.74454 -51.04439 38661 ft 458 kts 246°
2026-05-05 16:45 52.72030 -51.14098 38662 ft 458 kts 246°
2026-05-05 16:46 52.69578 -51.23817 38651 ft 458 kts 246°
2026-05-05 16:46 52.67124 -51.33505 38646 ft 457 kts 246°
2026-05-05 16:47 52.64675 -51.43136 38649 ft 457 kts 246°
2026-05-05 16:47 52.62206 -51.52803 38646 ft 457 kts 246°
2026-05-05 16:48 52.59744 -51.62400 38648 ft 457 kts 246°
2026-05-05 16:48 52.57263 -51.72032 38637 ft 457 kts 247°
2026-05-05 16:49 52.54792 -51.81581 38634 ft 455 kts 247°
2026-05-05 16:49 52.52306 -51.91153 38651 ft 455 kts 246°
2026-05-05 16:50 52.49812 -52.00708 38637 ft 455 kts 246°
2026-05-05 16:50 52.47325 -52.10202 38625 ft 455 kts 246°
2026-05-05 16:51 52.44818 -52.19731 38625 ft 455 kts 246°
2026-05-05 16:51 52.42296 -52.29274 38627 ft 455 kts 246°
2026-05-05 16:52 52.39766 -52.38806 38627 ft 456 kts 246°
2026-05-05 16:52 52.37250 -52.48250 38627 ft 455 kts 246°
2026-05-05 16:53 52.34709 -52.57747 38638 ft 455 kts 246°
2026-05-05 16:53 52.32160 -52.67236 38629 ft 454 kts 246°
2026-05-05 16:54 52.29627 -52.76626 38638 ft 453 kts 246°
2026-05-05 16:54 52.27076 -52.86046 38626 ft 453 kts 246°
2026-05-05 16:55 52.24524 -52.95427 38630 ft 453 kts 246°
2026-05-05 16:55 52.21957 -53.04831 38631 ft 453 kts 246°
2026-05-05 16:56 52.19376 -53.14242 38630 ft 453 kts 246°
2026-05-05 16:56 52.16806 -53.23575 38631 ft 453 kts 246°
2026-05-05 16:57 52.14213 -53.32956 38632 ft 454 kts 245°
2026-05-05 16:57 52.11608 -53.42344 38627 ft 453 kts 245°
2026-05-05 16:58 52.09019 -53.51636 38623 ft 453 kts 245°
2026-05-05 16:58 52.06401 -53.60991 38627 ft 453 kts 245°
2026-05-05 16:59 52.03797 -53.70264 38628 ft 453 kts 245°
2026-05-05 16:59 52.01165 -53.79598 38620 ft 453 kts 245°
2026-05-05 17:00 51.98527 -53.88914 38619 ft 453 kts 245°
2026-05-05 17:00 51.95904 -53.98142 38632 ft 453 kts 245°
2026-05-05 17:01 51.93253 -54.07433 38628 ft 453 kts 245°
2026-05-05 17:01 51.90597 -54.16706 38633 ft 453 kts 245°
2026-05-05 17:02 51.87948 -54.25916 38625 ft 453 kts 245°
2026-05-05 17:02 51.85279 -54.35160 38628 ft 453 kts 245°
2026-05-05 17:03 51.82599 -54.44407 38630 ft 453 kts 245°
2026-05-05 17:03 51.79829 -54.53547 38642 ft 451 kts 241°
2026-05-05 17:04 51.76676 -54.62199 38629 ft 449 kts 239°
2026-05-05 17:04 51.73967 -54.69362 38622 ft 449 kts 239°
2026-05-05 17:05 51.70686 -54.77950 38637 ft 449 kts 239°
2026-05-05 17:05 51.66875 -54.87911 38633 ft 449 kts 239°
2026-05-05 17:06 51.64123 -54.95097 38638 ft 450 kts 239°
2026-05-05 17:06 51.60827 -55.03686 38635 ft 451 kts 239°
2026-05-05 17:07 51.57537 -55.12228 38634 ft 451 kts 239°
2026-05-05 17:07 51.54220 -55.20809 38619 ft 451 kts 239°
2026-05-05 17:08 51.50892 -55.29394 38628 ft 453 kts 239°
2026-05-05 17:08 51.47567 -55.37942 38632 ft 454 kts 239°
2026-05-05 17:09 51.44204 -55.46557 38637 ft 454 kts 239°
2026-05-05 17:09 51.40843 -55.55136 38639 ft 454 kts 239°
2026-05-05 17:10 51.37476 -55.63703 38638 ft 454 kts 239°
2026-05-05 17:10 51.34115 -55.72225 38621 ft 454 kts 240°
2026-05-05 17:11 51.30742 -55.80752 38624 ft 453 kts 240°
2026-05-05 17:11 51.27365 -55.89260 38625 ft 453 kts 240°
2026-05-05 17:12 51.24004 -55.97701 38622 ft 453 kts 239°
2026-05-05 17:12 51.20617 -56.06179 38629 ft 453 kts 240°
2026-05-05 17:13 51.17231 -56.14623 38629 ft 449 kts 240°
2026-05-05 17:13 51.13888 -56.22937 38618 ft 447 kts 239°
2026-05-05 17:14 51.10521 -56.31285 38621 ft 447 kts 239°
2026-05-05 17:14 51.07151 -56.39613 38625 ft 447 kts 239°
2026-05-05 17:15 51.03785 -56.47903 38625 ft 447 kts 239°
2026-05-05 17:15 51.00432 -56.56129 38632 ft 442 kts 239°
2026-05-05 17:16 50.97095 -56.64296 38626 ft 440 kts 239°
2026-05-05 17:16 50.93775 -56.72401 38635 ft 440 kts 238°
2026-05-05 17:17 50.90422 -56.80557 38632 ft 440 kts 238°
2026-05-05 17:17 50.87080 -56.88659 38643 ft 438 kts 238°
2026-05-05 17:18 50.83766 -56.96668 38657 ft 437 kts 238°
2026-05-05 17:18 50.80430 -57.04707 38657 ft 437 kts 238°
2026-05-05 17:19 50.77105 -57.12693 38666 ft 437 kts 238°
2026-05-05 17:19 50.73753 -57.20720 38656 ft 437 kts 238°
2026-05-05 17:20 50.70377 -57.28785 38687 ft 442 kts 238°
2026-05-05 17:20 50.66986 -57.36855 38687 ft 443 kts 238°
2026-05-05 17:21 50.63566 -57.44971 38701 ft 443 kts 238°
2026-05-05 17:22 50.58456 -57.57047 38709 ft 443 kts 238°
2026-05-05 17:22 50.55018 -57.65141 38722 ft 444 kts 238°
2026-05-05 17:23 50.51595 -57.73178 38743 ft 445 kts 238°
2026-05-05 17:23 50.48130 -57.81286 38739 ft 447 kts 238°
2026-05-05 17:24 50.44648 -57.89409 38752 ft 448 kts 238°
2026-05-05 17:24 50.41187 -57.97455 38754 ft 447 kts 238°
2026-05-05 17:25 50.37702 -58.05535 38769 ft 446 kts 238°
2026-05-05 17:25 50.34217 -58.13591 38772 ft 446 kts 238°
2026-05-05 17:26 50.30741 -58.21600 38766 ft 446 kts 238°
2026-05-05 17:26 50.27248 -58.29626 38764 ft 446 kts 238°
2026-05-05 17:27 50.23769 -58.37593 38768 ft 446 kts 238°
2026-05-05 17:27 50.20264 -58.45597 38772 ft 445 kts 238°
2026-05-05 17:28 50.16756 -58.53583 38774 ft 445 kts 238°
2026-05-05 17:28 50.13261 -58.61516 38782 ft 445 kts 238°
2026-05-05 17:29 50.09757 -58.69445 38766 ft 445 kts 238°
2026-05-05 17:29 50.06235 -58.77390 38777 ft 445 kts 238°
2026-05-05 17:30 50.02715 -58.85308 38790 ft 444 kts 238°
2026-05-05 17:30 49.99207 -58.93176 38796 ft 445 kts 237°
2026-05-05 17:31 49.95674 -59.01075 38782 ft 444 kts 237°
2026-05-05 17:31 49.92145 -59.08941 38793 ft 443 kts 237°
2026-05-05 17:32 49.88609 -59.16800 38790 ft 443 kts 237°
2026-05-05 17:32 49.85075 -59.24633 38789 ft 443 kts 237°
2026-05-05 17:33 49.81553 -59.32415 38797 ft 443 kts 237°
2026-05-05 17:33 49.78009 -59.40223 38800 ft 444 kts 237°
2026-05-05 17:34 49.74443 -59.48055 38808 ft 444 kts 237°
2026-05-05 17:34 49.70898 -59.55820 38809 ft 445 kts 237°
2026-05-05 17:35 49.67322 -59.63628 38797 ft 445 kts 237°
2026-05-05 17:35 49.63738 -59.71431 38793 ft 445 kts 237°
2026-05-05 17:36 49.60149 -59.79223 38803 ft 445 kts 237°
2026-05-05 17:36 49.56578 -59.86952 38804 ft 445 kts 237°
2026-05-05 17:37 49.52979 -59.94721 38801 ft 445 kts 237°
2026-05-05 17:37 49.49395 -60.02434 38807 ft 445 kts 237°
2026-05-05 17:38 49.45790 -60.10169 38804 ft 445 kts 237°
2026-05-05 17:38 49.42171 -60.17913 38800 ft 445 kts 237°
2026-05-05 17:39 49.38544 -60.25651 38809 ft 445 kts 237°
2026-05-05 17:39 49.34942 -60.33312 38811 ft 445 kts 237°
2026-05-05 17:40 49.31311 -60.41013 38811 ft 444 kts 237°
2026-05-05 17:40 49.27687 -60.48677 38815 ft 442 kts 237°
2026-05-05 17:41 49.24069 -60.56309 38813 ft 442 kts 237°
2026-05-05 17:41 49.20470 -60.63879 38815 ft 442 kts 237°
2026-05-05 17:42 49.16841 -60.71489 38809 ft 442 kts 237°
2026-05-05 17:42 49.13252 -60.78990 38815 ft 437 kts 237°
2026-05-05 17:43 49.09664 -60.86471 38815 ft 435 kts 237°
2026-05-05 17:43 49.06079 -60.93928 38819 ft 435 kts 237°
2026-05-05 17:44 49.02491 -61.01371 38816 ft 435 kts 237°
2026-05-05 17:44 48.98925 -61.08744 38811 ft 433 kts 237°
2026-05-05 17:45 48.95357 -61.16100 38816 ft 431 kts 237°
2026-05-05 17:45 48.91801 -61.23414 38809 ft 428 kts 237°
2026-05-05 17:46 48.88262 -61.30674 38819 ft 427 kts 237°
2026-05-05 17:46 48.84740 -61.37880 38815 ft 426 kts 237°
2026-05-05 17:47 48.81208 -61.45085 38803 ft 424 kts 237°
2026-05-05 17:47 48.77707 -61.52209 38817 ft 423 kts 237°
2026-05-05 17:48 48.74177 -61.59373 38809 ft 423 kts 237°
2026-05-05 17:48 48.70661 -61.66490 38818 ft 423 kts 237°
2026-05-05 17:49 48.67125 -61.73627 38810 ft 422 kts 236°
2026-05-05 17:49 48.63597 -61.80730 38804 ft 422 kts 236°
2026-05-05 17:50 48.60081 -61.87790 38805 ft 422 kts 236°
2026-05-05 17:50 48.56534 -61.94893 38804 ft 422 kts 236°
2026-05-05 17:51 48.53016 -62.01920 38789 ft 422 kts 236°
2026-05-05 17:51 48.49463 -62.08999 38804 ft 422 kts 236°
2026-05-05 17:52 48.45932 -62.16015 38804 ft 422 kts 236°
2026-05-05 17:52 48.42382 -62.23052 38802 ft 421 kts 236°
2026-05-05 17:53 48.38815 -62.30103 38793 ft 422 kts 236°
2026-05-05 17:53 48.35278 -62.37076 38792 ft 423 kts 235°
2026-05-05 17:54 48.31702 -62.44109 38791 ft 423 kts 235°
2026-05-05 17:54 48.28719 -62.49960 38790 ft 423 kts 235°
2026-05-05 17:55 48.25132 -62.56978 38785 ft 423 kts 235°
2026-05-05 17:55 48.21541 -62.63989 38775 ft 423 kts 235°
2026-05-05 17:56 48.17973 -62.70936 38777 ft 422 kts 235°
2026-05-05 17:56 48.14380 -62.77914 38777 ft 422 kts 235°
2026-05-05 17:57 48.10802 -62.84845 38774 ft 422 kts 235°
2026-05-05 17:57 48.07202 -62.91801 38774 ft 422 kts 235°
2026-05-05 17:58 48.03601 -62.98741 38773 ft 421 kts 234°
2026-05-05 17:58 48.00025 -63.05613 38768 ft 420 kts 234°
2026-05-05 17:59 47.96424 -63.12518 38763 ft 420 kts 234°
2026-05-05 17:59 47.92826 -63.19400 38763 ft 420 kts 234°
2026-05-05 18:00 47.89224 -63.26271 38763 ft 419 kts 234°
2026-05-05 18:00 47.85659 -63.33054 38763 ft 417 kts 234°
2026-05-05 18:01 47.82073 -63.39861 38762 ft 417 kts 234°
2026-05-05 18:01 47.78474 -63.46676 38749 ft 418 kts 234°
2026-05-05 18:02 47.74903 -63.53422 38749 ft 418 kts 234°
2026-05-05 18:02 47.71301 -63.60208 38745 ft 418 kts 234°
2026-05-05 18:03 47.67690 -63.66994 38742 ft 418 kts 234°
2026-05-05 18:03 47.64103 -63.73718 38743 ft 417 kts 234°
2026-05-05 18:04 47.60485 -63.80483 38745 ft 417 kts 234°
2026-05-05 18:04 47.56870 -63.87227 38737 ft 418 kts 234°
2026-05-05 18:05 47.53270 -63.93925 38747 ft 418 kts 234°
2026-05-05 18:05 47.49644 -64.00657 38746 ft 418 kts 234°
2026-05-05 18:06 47.46034 -64.07340 38743 ft 418 kts 234°
2026-05-05 18:06 47.42401 -64.14052 38724 ft 418 kts 234°
2026-05-05 18:07 47.38777 -64.20728 38733 ft 416 kts 234°
2026-05-05 18:07 47.35167 -64.27364 38738 ft 415 kts 233°
2026-05-05 18:08 47.31537 -64.34021 38738 ft 415 kts 233°
2026-05-05 18:08 47.27912 -64.40652 38744 ft 415 kts 233°
2026-05-05 18:09 47.24302 -64.47238 38744 ft 416 kts 233°
2026-05-05 18:09 47.20655 -64.53877 38746 ft 416 kts 233°
2026-05-05 18:10 47.17028 -64.60463 38740 ft 416 kts 233°
2026-05-05 18:10 47.13372 -64.67086 38730 ft 416 kts 233°
2026-05-05 18:11 47.09713 -64.73700 38719 ft 416 kts 233°
2026-05-05 18:11 47.06085 -64.80240 38727 ft 415 kts 233°
2026-05-05 18:12 47.02432 -64.86809 38728 ft 415 kts 233°
2026-05-05 18:12 46.98778 -64.93366 38728 ft 415 kts 233°
2026-05-05 18:13 46.95138 -64.99883 38734 ft 415 kts 233°
2026-05-05 18:13 46.91496 -65.06385 38729 ft 413 kts 233°
2026-05-05 18:14 46.87859 -65.12865 38736 ft 411 kts 233°
2026-05-05 18:14 46.84216 -65.19339 38738 ft 411 kts 233°
2026-05-05 18:15 46.80581 -65.25784 38743 ft 410 kts 233°
2026-05-05 18:15 46.76969 -65.32175 38741 ft 409 kts 233°
2026-05-05 18:16 46.73337 -65.38585 38749 ft 409 kts 233°
2026-05-05 18:16 46.69704 -65.44983 38746 ft 409 kts 233°
2026-05-05 18:17 46.66095 -65.51322 38751 ft 409 kts 233°
2026-05-05 18:17 46.62448 -65.57714 38735 ft 409 kts 233°
2026-05-05 18:18 46.58828 -65.64044 38759 ft 408 kts 233°
2026-05-05 18:18 46.55187 -65.70395 38761 ft 408 kts 233°
2026-05-05 18:19 46.51548 -65.76730 38755 ft 408 kts 233°
2026-05-05 18:19 46.47908 -65.83052 38755 ft 408 kts 233°
2026-05-05 18:20 46.44285 -65.89329 38756 ft 407 kts 233°
2026-05-05 18:20 46.40636 -65.95636 38759 ft 407 kts 233°
2026-05-05 18:21 46.37008 -66.01893 38773 ft 407 kts 233°
2026-05-05 18:21 46.33357 -66.08176 38759 ft 407 kts 233°
2026-05-05 18:22 46.29720 -66.14421 38762 ft 407 kts 232°
2026-05-05 18:22 46.26067 -66.20677 38778 ft 406 kts 232°
2026-05-05 18:22 46.24246 -66.23792 38669 ft 406 kts 232°
2026-05-05 18:23 46.22420 -66.26911 38449 ft 405 kts 232°
2026-05-05 18:23 46.20621 -66.29979 38178 ft 403 kts 233°
2026-05-05 18:23 46.18812 -66.33062 37899 ft 403 kts 233°
2026-05-05 18:23 46.16990 -66.36163 37768 ft 404 kts 233°
2026-05-05 18:24 46.15163 -66.39272 37758 ft 405 kts 233°
2026-05-05 18:24 46.11537 -66.45430 37770 ft 405 kts 233°
2026-05-05 18:25 46.07884 -66.51617 37760 ft 405 kts 233°
2026-05-05 18:25 46.04209 -66.57826 37752 ft 405 kts 232°
2026-05-05 18:26 46.00568 -66.63967 37760 ft 405 kts 232°
2026-05-05 18:26 45.96897 -66.70143 37758 ft 405 kts 233°
2026-05-05 18:27 45.93227 -66.76305 37765 ft 405 kts 232°
2026-05-05 18:27 45.89579 -66.82415 37768 ft 405 kts 232°
2026-05-05 18:28 45.84056 -66.91643 37747 ft 405 kts 232°
2026-05-05 18:28 45.80380 -66.97767 37761 ft 405 kts 232°
2026-05-05 18:29 45.76717 -67.03855 37771 ft 404 kts 232°
2026-05-05 18:29 45.73066 -67.09910 37769 ft 403 kts 232°
2026-05-05 18:30 45.69400 -67.15976 37775 ft 402 kts 232°
2026-05-05 18:30 45.65723 -67.22049 37765 ft 403 kts 232°
2026-05-05 18:31 45.62034 -67.28132 37767 ft 412 kts 232°
2026-05-05 18:31 45.58234 -67.34385 37771 ft 421 kts 232°
2026-05-05 18:32 45.54363 -67.40733 37772 ft 422 kts 232°
2026-05-05 18:32 45.50601 -67.46876 37780 ft 405 kts 232°
2026-05-05 18:33 45.46897 -67.52921 37784 ft 403 kts 232°
2026-05-05 18:33 45.43200 -67.58952 37775 ft 404 kts 232°
2026-05-05 18:34 45.39496 -67.64979 37786 ft 404 kts 232°
2026-05-05 18:34 45.35806 -67.70811 38109 ft 397 kts 227°
2026-05-05 18:35 45.33712 -67.73387 38400 ft 398 kts 220°
2026-05-05 18:35 45.31380 -67.75540 38641 ft 401 kts 214°
2026-05-05 18:35 45.28916 -67.77406 38771 ft 403 kts 212°
2026-05-05 18:35 45.26376 -67.79191 38803 ft 408 kts 211°
2026-05-05 18:36 45.21216 -67.82642 38801 ft 417 kts 210°
2026-05-05 18:36 45.15929 -67.86148 38804 ft 419 kts 210°
2026-05-05 18:37 45.10644 -67.89681 38814 ft 419 kts 210°
2026-05-05 18:37 45.05398 -67.93207 38814 ft 419 kts 210°
2026-05-05 18:38 45.00112 -67.96759 38810 ft 419 kts 210°
2026-05-05 18:38 44.94858 -68.00283 38828 ft 420 kts 210°
2026-05-05 18:39 44.89561 -68.03827 38835 ft 420 kts 210°
2026-05-05 18:39 44.84300 -68.07338 38834 ft 420 kts 210°
2026-05-05 18:40 44.79001 -68.10869 38857 ft 422 kts 210°
2026-05-05 18:40 44.74570 -68.13816 38541 ft 422 kts 210°
2026-05-05 18:41 44.71049 -68.16152 38164 ft 420 kts 210°
2026-05-05 18:41 44.68394 -68.17912 37904 ft 421 kts 210°
2026-05-05 18:41 44.63970 -68.20843 37849 ft 423 kts 210°
2026-05-05 18:42 44.58634 -68.24370 37855 ft 423 kts 210°
2026-05-05 18:42 44.53299 -68.27889 37850 ft 423 kts 210°
2026-05-05 18:43 44.47992 -68.31382 37852 ft 423 kts 210°
2026-05-05 18:43 44.42644 -68.34896 37848 ft 425 kts 210°
2026-05-05 18:44 44.37276 -68.38416 37855 ft 425 kts 210°
2026-05-05 18:44 44.31953 -68.41899 37852 ft 425 kts 210°
2026-05-05 18:45 44.26585 -68.45404 37870 ft 425 kts 209°
2026-05-05 18:45 44.21202 -68.48912 37869 ft 426 kts 209°
2026-05-05 18:46 44.15856 -68.52388 37864 ft 426 kts 209°
2026-05-05 18:46 44.10474 -68.55880 37854 ft 426 kts 209°
2026-05-05 18:47 44.05106 -68.59358 37861 ft 428 kts 209°
2026-05-05 18:47 43.99700 -68.62853 37859 ft 428 kts 209°
2026-05-05 18:48 43.94323 -68.66321 37855 ft 428 kts 209°
2026-05-05 18:48 43.88914 -68.69803 37858 ft 429 kts 209°
2026-05-05 18:49 43.83484 -68.73292 37860 ft 429 kts 209°
2026-05-05 18:49 43.78097 -68.76747 37868 ft 430 kts 209°
2026-05-05 18:50 43.72601 -68.80269 37861 ft 440 kts 208°
2026-05-05 18:50 43.66984 -68.83859 37864 ft 448 kts 208°
2026-05-05 18:51 43.61331 -68.87459 37858 ft 449 kts 208°
2026-05-05 18:51 43.55653 -68.91065 37860 ft 448 kts 208°
2026-05-05 18:52 43.49960 -68.94678 37857 ft 451 kts 208°
2026-05-05 18:52 43.44289 -68.98270 37875 ft 451 kts 208°
2026-05-05 18:53 43.38564 -69.01888 37873 ft 451 kts 208°
2026-05-05 18:53 43.32879 -69.05473 37878 ft 451 kts 208°
2026-05-05 18:54 43.27172 -69.09065 37881 ft 451 kts 208°
2026-05-05 18:54 43.21460 -69.12653 37881 ft 451 kts 208°
2026-05-05 18:55 43.15786 -69.16209 37886 ft 450 kts 208°
2026-05-05 18:55 43.10080 -69.19778 37889 ft 450 kts 208°
2026-05-05 18:56 43.04369 -69.23344 37892 ft 451 kts 207°
2026-05-05 18:56 42.98657 -69.26902 37881 ft 451 kts 207°
2026-05-05 18:57 42.92967 -69.30439 37887 ft 451 kts 207°
2026-05-05 18:57 42.87243 -69.33990 37887 ft 451 kts 207°
2026-05-05 18:58 42.81516 -69.37536 37892 ft 451 kts 207°
2026-05-05 18:58 42.75828 -69.41050 37889 ft 451 kts 207°
2026-05-05 18:59 42.70132 -69.44563 37894 ft 451 kts 207°
2026-05-05 18:59 42.64404 -69.48088 37903 ft 451 kts 207°
2026-05-05 19:00 42.58679 -69.51604 37911 ft 451 kts 207°
2026-05-05 19:00 42.52949 -69.55115 37901 ft 450 kts 207°
2026-05-05 19:01 42.47273 -69.58587 37906 ft 450 kts 207°
2026-05-05 19:01 42.41560 -69.62074 37914 ft 450 kts 207°
2026-05-05 19:02 42.35850 -69.65553 37918 ft 450 kts 207°
2026-05-05 19:02 42.30126 -69.69034 37920 ft 451 kts 207°
2026-05-05 19:03 42.25362 -69.71924 37921 ft 451 kts 207°